Location: Treviso
(45.6669°N, 12.2430°E)
Time: 10:59:46
(UTC+02:00)

ISS - Pass Details

Date: 30 June 2022
Orbit: 414 x 420 km, 51.6° (Epoch: 02 July)

Event Time Altitude Azimuth Distance (km) Brightness Sun altitude
Exits shadow 04:08:39 16° 232° (SW) 1,169 -2.1 -10.6°
Maximum altitude 04:11:11 73° 149° (SSE) 440 -3.8 -10.3°
Drops below altitude 10° 04:14:33 10° 64° (ENE) 1,502 0.3 -10.0°
Sets 04:16:39 0° 63° (ENE) 2,370 1.6 -9.7°
